Home > Weather > Mechernich > Past weeks

Flag for Germany Weather for the Past 2 Weeks in Mechernich, North Rhine-Westphalia, Germany

Now
39 °F

Passing clouds.


Feels Like: 39 °F
Forecast: 47 / 71 °F
Wind: 2 mph from Southeast

Location: Noervenich

Current Time: May 5, 2016 at 3:55:01 AM

Latest Report: May 5, 2016 at 3:20 AM


Visibility: N/A

Pressure: 30.33 "Hg

Humidity: 81%

Dew Point: 34 °F

Location of MechernichLocation

Historic Weather in Mechernich — Graph

°F

Mechernich Temperature Yesterday

Maximum temperature yesterday: 59 °F (at 3:20 PM)
Minimum temperature yesterday: 37 °F (at 6:20 AM)
Average temperature yesterday: 49 °F

High & Low Weather Summary for the Past Weeks

 TemperatureHumidityPressure
High68 °F (Apr 21, 4:20 PM)100% (Apr 30, 5:20 AM)30.48 "Hg (Apr 30, 5:20 AM)
Low34 °F (Apr 21, 6:20 AM)26% (Apr 21, 4:20 PM)29.53 "Hg (Apr 26, 10:20 AM)
Average46 °F70%30.04 "Hg
* Reported Apr 20 2:20 AM — May 5 2:20 AM, Mechernich, Weather by CustomWeather, © 2016

Note: Actual official high and low records may vary slightly from our data, if they occured in-between our weather recording intervals... More about our weather records

Advertising

Mechernich Weather History for the Previous 24 Hours

Scroll right to see more
 ConditionsComfort  
Time TempWeatherWind HumidityBarometerVisibility
2:20 AM
Thu, May 5
41 °FPassing clouds.2 mph76%30.33 "HgN/A
1:20 AM43 °FPassing clouds.2 mph71%30.33 "HgN/A
12:20 AM45 °FPassing clouds.2 mph66%30.33 "HgN/A
11:20 PM
Wed, May 4
46 °FPassing clouds.No wind62%30.33 "HgN/A
10:20 PM48 °FPassing clouds.No wind58%30.33 "HgN/A
9:20 PM52 °FCool.No wind50%30.33 "HgN/A
8:20 PM55 °FRefreshingly cool.1 mph41%30.33 "HgN/A
7:20 PM59 °FRefreshingly cool.1 mph34%30.33 "Hg6 mi
6:20 PM59 °FRefreshingly cool.2 mph34%30.33 "Hg6 mi
5:20 PM59 °FRefreshingly cool.2 mph34%30.33 "HgN/A
4:20 PM57 °FRefreshingly cool.2 mph36%30.36 "Hg6 mi
3:20 PM59 °FRefreshingly cool.2 mph34%30.36 "HgN/A
2:20 PM57 °FPassing clouds.3 mph36%30.39 "HgN/A
1:20 PM55 °FPassing clouds.2 mph44%30.39 "HgN/A
12:20 PM54 °FPassing clouds.3 mph47%30.39 "HgN/A
11:20 AM52 °FPassing clouds.2 mph50%30.39 "HgN/A
10:20 AM50 °FPartly sunny.2 mph58%30.42 "HgN/A
9:20 AM48 °FPassing clouds.1 mph71%30.42 "HgN/A
8:20 AM43 °FScattered clouds.2 mph81%30.42 "HgN/A
7:20 AM39 °FScattered clouds.1 mph87%30.39 "HgN/A
6:20 AM37 °FPassing clouds.3 mph87%30.39 "HgN/A
5:20 AM39 °FPassing clouds.3 mph87%30.39 "HgN/A
4:20 AM41 °FQuite cool.5 mph81%30.36 "HgN/A
3:20 AM41 °FQuite cool.5 mph81%30.36 "HgN/A
Weather by CustomWeather, © 2016

See weather overviewHow to use our weather pages